Location: La Savane
(18.0962°N, 63.0646°W)
Time: 18:45:49
(UTC+00:00)

Cosmos 1340 - Pass Details

Date: 29 October 2020
Orbit: 501 x 504 km, 81.2° (Epoch: 24 November)

Event Time Altitude Azimuth Distance (km) Brightness Sun altitude
Rises 22:12:43 0° 2° (N) 2,597 6.1 -8.1°
Reaches altitude 10° 22:14:54 10° 9° (N) 1,711 5.1 -8.7°
Maximum altitude 22:18:30 45° 83° (E) 695 2.9 -9.5°
Drops below altitude 10° 22:22:06 10° 157° (SSE) 1,707 5.2 -10.3°
Sets 22:24:16 0° 163° (SSE) 2,589 6.2 -10.8°
